Back to catalog

STARLINK-3899

AliveCommunicationsVLEO
NORAD 52457·PAYLOAD·🇺🇸 United States

Launched May 6, 2022 from Cape Canaveral Space Force Station

Loading…

Next Passes (next 24 hours)

TLE

FreshSource: CelesTrak SupGP

Epoch: Sep 14, 2026, 20:45 UTC

1 52457C 22049G   26257.86506944  .00665400  00000+0  21239-1 0  2579
2 52457  53.1592 296.4294 0001299  94.5139 218.2083 15.31607766    15

Track STARLINK-3899 in real time with AllMySat

Download on the App Store